Home > Weather > Pinneberg > Past weeks

Flag for Germany Past Weather in Pinneberg, Schleswig-Holstein, Germany — Yesterday and Last 2 Weeks

Now
66 °F

Broken clouds.


Feels Like: 66 °F
Forecast: 60 / 71 °F
Wind: 2 mph from North

Location: Hamburg-Fuhlsbuettel

Current Time: Jul 27, 2016 at 9:21:50 PM

Latest Report: Jul 27, 2016 at 8:50 PM


Visibility: N/A

Pressure: 29.92 "Hg

Humidity: 94%

Dew Point: 64 °F

Location of PinnebergLocation

Past Weather in Pinneberg — Graph

°F

Pinneberg Temperature Yesterday

Maximum temperature yesterday: 73 °F (at 4:50 PM)
Minimum temperature yesterday: 61 °F (at 4:50 AM)
Average temperature yesterday: 67 °F

High & Low Weather Summary for the Past Weeks

 TemperatureHumidityPressure
High84 °F (Jul 21, 3:50 PM)100% (Jul 13, 12:20 AM)30.21 "Hg (Jul 13, 12:20 AM)
Low52 °F (Jul 14, 3:20 AM)42% (Jul 23, 2:20 PM)29.86 "Hg (Jul 12, 7:20 PM)
Average66 °F78%30.05 "Hg
* Reported Jul 12 7:20 PM — Jul 27 7:50 PM, Pinneberg, Weather by CustomWeather, © 2016

Note: Actual official high and low records may vary slightly from our data, if they occured in-between our weather recording intervals... More about our weather records

Advertising

Pinneberg Weather History for the Previous 24 Hours

Scroll right to see more
 ConditionsComfort  
Time TempWeatherWind HumidityBarometerVisibility
7:50 PM
Wed, Jul 27
68 °FScattered clouds.2 mph88%29.92 "HgN/A
7:20 PM70 °FScattered clouds.3 mph83%29.92 "HgN/A
6:50 PM70 °FPassing clouds.3 mph83%29.92 "HgN/A
6:20 PM70 °FScattered clouds.3 mph83%29.92 "HgN/A
5:50 PM66 °FRain showers. Partly sunny.10 mph88%29.92 "Hg4 mi
5:20 PM70 °FScattered showers. Broken clouds.12 mph78%29.92 "HgN/A
4:50 PM72 °FBroken clouds.9 mph69%29.92 "HgN/A
4:20 PM73 °FBroken clouds.5 mph69%29.92 "HgN/A
3:50 PM73 °FScattered clouds.6 mph65%29.92 "HgN/A
3:20 PM72 °FScattered clouds.7 mph69%29.95 "HgN/A
2:50 PM72 °FPartly sunny.5 mph69%29.95 "HgN/A
2:20 PM70 °FPartly sunny.3 mph69%29.98 "HgN/A
1:50 PM68 °FPartly sunny.3 mph73%29.98 "HgN/A
1:20 PM68 °FPartly sunny.3 mph73%29.98 "HgN/A
12:50 PM68 °FBroken clouds.6 mph73%29.98 "HgN/A
12:20 PM66 °FPartly sunny.8 mph78%30.01 "HgN/A
11:50 AM66 °FPartly sunny.7 mph73%30.01 "HgN/A
11:20 AM66 °FPartly sunny.10 mph78%30.01 "HgN/A
10:50 AM66 °FBroken clouds.12 mph73%30.01 "HgN/A
10:20 AM66 °FBroken clouds.9 mph78%30.01 "HgN/A
9:50 AM64 °FPartly sunny.12 mph83%30.04 "HgN/A
9:20 AM64 °FPartly sunny.10 mph83%30.04 "HgN/A
8:50 AM64 °FPartly sunny.7 mph78%30.04 "HgN/A
8:20 AM64 °FPartly sunny.8 mph78%30.04 "HgN/A
7:50 AM64 °FPassing clouds.6 mph78%30.04 "HgN/A
7:20 AM63 °FPassing clouds.7 mph83%30.04 "HgN/A
6:50 AM63 °FSunny.13 mph83%30.04 "Hg10 mi
6:20 AM63 °FPassing clouds.15 mph83%30.07 "HgN/A
5:50 AM63 °FPassing clouds.10 mph88%30.07 "HgN/A
5:20 AM63 °FPassing clouds.13 mph83%30.07 "HgN/A
4:50 AM64 °FPassing clouds.10 mph78%30.07 "HgN/A
4:20 AM64 °FClear.12 mph78%30.07 "Hg10 mi
3:50 AM66 °FClear.13 mph73%30.07 "Hg10 mi
3:20 AM64 °FClear.7 mph78%30.07 "Hg10 mi
2:50 AM64 °FClear.8 mph78%30.09 "Hg10 mi
2:20 AM64 °FClear.7 mph78%30.09 "Hg10 mi
1:50 AM63 °FClear.6 mph83%30.09 "Hg10 mi
1:20 AM63 °FClear.5 mph83%30.09 "Hg10 mi
12:50 AM61 °FClear.2 mph88%30.09 "Hg10 mi
12:20 AM61 °FClear.1 mph88%30.09 "Hg10 mi
11:50 PM
Tue, Jul 26
61 °FClear.2 mph88%30.09 "Hg10 mi
11:20 PM63 °FClear.2 mph88%30.09 "Hg10 mi
10:50 PM63 °FClear.1 mph83%30.09 "Hg10 mi
10:20 PM64 °FSunny.3 mph78%30.09 "Hg10 mi
9:50 PM64 °FPartly sunny.3 mph83%30.09 "HgN/A
9:20 PM66 °FPartly sunny.5 mph73%30.09 "HgN/A
Weather by CustomWeather, © 2016

See weather overviewHow to use our weather pages